CEB326 RPLL-RPVK

Flight info

Callsign CEB326
Flight time 0h 41m
Altitude 25000
Route VERDE4V VERDE W24 TAPER TAPER1A
Aircraft A320/M-SDE3FGHIRWY/LB1

Departure

Time 2026-04-26 13:24
Airport Ninoy Aquino International Airport (RPLL)

Arrival

Time 2026-04-26 14:05
Airport Kalibo International Airport (RPVK)
Time Latitude Longitude Altitude Speed Heading
2026-04-26 13:07 14.52199 121.01000 69 ft 0 kts 44°
2026-04-26 13:14 14.52189 121.00990 50 ft 2 kts 44°
2026-04-26 13:14 14.52177 121.00978 70 ft 2 kts 44°
2026-04-26 13:14 14.52164 121.00965 62 ft 2 kts 44°
2026-04-26 13:14 14.52152 121.00953 60 ft 2 kts 44°
2026-04-26 13:15 14.52140 121.00940 62 ft 3 kts 33°
2026-04-26 13:15 14.52123 121.00933 62 ft 3 kts 357°
2026-04-26 13:15 14.52106 121.00937 59 ft 3 kts 321°
2026-04-26 13:15 14.52101 121.00942 59 ft 0 kts 310°
2026-04-26 13:17 14.52123 121.00915 59 ft 13 kts 310°
2026-04-26 13:18 14.52228 121.00793 65 ft 10 kts 315°
2026-04-26 13:18 14.52279 121.00741 67 ft 11 kts 315°
2026-04-26 13:18 14.52400 121.00617 64 ft 11 kts 316°
2026-04-26 13:19 14.52452 121.00564 62 ft 10 kts 314°
2026-04-26 13:19 14.52491 121.00513 66 ft 8 kts 283°
2026-04-26 13:19 14.52486 121.00496 69 ft 7 kts 245°
2026-04-26 13:19 14.52456 121.00460 67 ft 6 kts 226°
2026-04-26 13:20 14.52438 121.00441 60 ft 0 kts 226°
2026-04-26 13:21 14.52435 121.00438 61 ft 4 kts 226°
2026-04-26 13:21 14.52409 121.00410 59 ft 9 kts 226°
2026-04-26 13:21 14.52348 121.00416 68 ft 8 kts 136°
2026-04-26 13:21 14.52344 121.00420 68 ft 0 kts 136°
2026-04-26 13:23 14.52167 121.00603 62 ft 74 kts 134°
2026-04-26 13:23 14.51646 121.01145 68 ft 133 kts 135°
2026-04-26 13:23 14.50939 121.01869 465 ft 150 kts 136°
2026-04-26 13:24 14.50156 121.02651 1082 ft 160 kts 134°
2026-04-26 13:24 14.49314 121.03476 1616 ft 174 kts 134°
2026-04-26 13:24 14.48404 121.04379 2006 ft 193 kts 133°
2026-04-26 13:24 14.47375 121.05398 2359 ft 217 kts 136°
2026-04-26 13:25 14.46068 121.06339 2733 ft 243 kts 146°
2026-04-26 13:25 14.44549 121.07272 3265 ft 260 kts 147°
2026-04-26 13:25 14.42975 121.08223 4044 ft 264 kts 147°
2026-04-26 13:25 14.41395 121.09188 4844 ft 269 kts 147°
2026-04-26 13:26 14.39779 121.10194 5636 ft 273 kts 147°
2026-04-26 13:26 14.38148 121.11226 6428 ft 277 kts 147°
2026-04-26 13:26 14.36497 121.12281 7191 ft 281 kts 147°
2026-04-26 13:26 14.34826 121.13348 7973 ft 284 kts 147°
2026-04-26 13:27 14.33134 121.14422 8746 ft 287 kts 147°
2026-04-26 13:27 14.31413 121.15504 9514 ft 291 kts 147°
2026-04-26 13:27 14.29672 121.16590 10201 ft 297 kts 147°
2026-04-26 13:27 14.27753 121.17593 10395 ft 322 kts 162°
2026-04-26 13:28 14.25450 121.17813 10552 ft 348 kts 185°
2026-04-26 13:28 14.22994 121.17393 10799 ft 365 kts 189°
2026-04-26 13:28 14.20481 121.16902 11344 ft 370 kts 190°
2026-04-26 13:28 14.17942 121.16386 11968 ft 373 kts 190°
2026-04-26 13:29 14.15420 121.15871 12607 ft 376 kts 191°
2026-04-26 13:29 14.13673 121.15518 13040 ft 378 kts 191°
2026-04-26 13:29 14.10234 121.14835 13858 ft 382 kts 191°
2026-04-26 13:29 14.07609 121.14319 14394 ft 385 kts 191°
2026-04-26 13:30 14.04966 121.13802 14917 ft 388 kts 191°
2026-04-26 13:30 14.02308 121.13285 15452 ft 390 kts 191°
2026-04-26 13:30 13.99628 121.12768 15960 ft 393 kts 191°
2026-04-26 13:30 13.96923 121.12242 16462 ft 396 kts 191°
2026-04-26 13:31 13.94196 121.11708 16948 ft 399 kts 191°
2026-04-26 13:31 13.91457 121.11169 17433 ft 402 kts 191°
2026-04-26 13:31 13.88699 121.10625 17902 ft 405 kts 191°
2026-04-26 13:31 13.85949 121.10087 18326 ft 408 kts 191°
2026-04-26 13:32 13.83150 121.09543 18713 ft 411 kts 191°
2026-04-26 13:32 13.80327 121.08998 19096 ft 414 kts 191°
2026-04-26 13:32 13.77487 121.08450 19480 ft 417 kts 191°
2026-04-26 13:32 13.74622 121.07895 19820 ft 420 kts 192°
2026-04-26 13:33 13.71751 121.07336 19922 ft 421 kts 192°
2026-04-26 13:33 13.68874 121.06776 19945 ft 420 kts 192°
2026-04-26 13:33 13.66001 121.06219 19942 ft 420 kts 192°
2026-04-26 13:33 13.63130 121.05662 19944 ft 420 kts 192°
2026-04-26 13:34 13.60260 121.05103 19949 ft 420 kts 192°
2026-04-26 13:34 13.57382 121.04543 19951 ft 420 kts 191°
2026-04-26 13:34 13.54473 121.04217 19950 ft 421 kts 182°
2026-04-26 13:34 13.52535 121.04288 19952 ft 422 kts 175°
2026-04-26 13:35 13.48695 121.05132 19957 ft 423 kts 162°
2026-04-26 13:35 13.45999 121.06364 20043 ft 427 kts 151°
2026-04-26 13:35 13.43505 121.08037 20307 ft 430 kts 146°
2026-04-26 13:35 13.41022 121.09788 19988 ft 436 kts 146°
2026-04-26 13:36 13.38508 121.11544 19822 ft 438 kts 146°
2026-04-26 13:36 13.35974 121.13312 20114 ft 442 kts 146°
2026-04-26 13:36 13.33425 121.15093 20481 ft 444 kts 146°
2026-04-26 13:36 13.30896 121.16861 20840 ft 446 kts 146°
2026-04-26 13:37 13.28323 121.18663 21196 ft 448 kts 146°
2026-04-26 13:37 13.25741 121.20470 21539 ft 450 kts 146°
2026-04-26 13:37 13.23145 121.22289 21866 ft 453 kts 146°
2026-04-26 13:37 13.20532 121.24119 22180 ft 456 kts 146°
2026-04-26 13:38 13.17907 121.25960 22496 ft 458 kts 146°
2026-04-26 13:38 13.15266 121.27814 22797 ft 461 kts 146°
2026-04-26 13:38 13.12613 121.29677 23107 ft 463 kts 146°
2026-04-26 13:38 13.09950 121.31545 23396 ft 465 kts 146°
2026-04-26 13:39 13.07270 121.33423 23670 ft 467 kts 146°
2026-04-26 13:39 13.04579 121.35306 23923 ft 469 kts 147°
2026-04-26 13:39 13.01881 121.37191 24182 ft 470 kts 147°
2026-04-26 13:39 12.99187 121.39073 24615 ft 466 kts 147°
2026-04-26 13:40 12.96528 121.40934 24865 ft 460 kts 147°
2026-04-26 13:40 12.93882 121.42786 24946 ft 462 kts 147°
2026-04-26 13:40 12.91242 121.44631 24964 ft 467 kts 147°
2026-04-26 13:40 12.88557 121.46505 24958 ft 468 kts 147°
2026-04-26 13:41 12.85857 121.48390 24956 ft 469 kts 147°
2026-04-26 13:41 12.83160 121.50276 24952 ft 469 kts 147°
2026-04-26 13:41 12.80462 121.52162 24948 ft 469 kts 147°
2026-04-26 13:41 12.77767 121.54045 24949 ft 469 kts 147°
2026-04-26 13:42 12.75070 121.55926 24947 ft 469 kts 147°
2026-04-26 13:42 12.72365 121.57810 24943 ft 469 kts 147°
2026-04-26 13:42 12.69660 121.59697 24941 ft 469 kts 147°
2026-04-26 13:42 12.67000 121.61555 24938 ft 469 kts 147°
2026-04-26 13:43 12.64304 121.63437 24939 ft 468 kts 147°
2026-04-26 13:43 12.61611 121.65317 24934 ft 468 kts 147°
2026-04-26 13:43 12.58915 121.67195 24932 ft 468 kts 147°
2026-04-26 13:43 12.56222 121.69071 24930 ft 468 kts 147°
2026-04-26 13:44 12.53530 121.70948 24931 ft 468 kts 147°
2026-04-26 13:44 12.50834 121.72828 24930 ft 468 kts 147°
2026-04-26 13:44 12.48144 121.74704 24930 ft 468 kts 147°
2026-04-26 13:44 12.45454 121.76576 24927 ft 468 kts 147°
2026-04-26 13:45 12.42761 121.78448 24929 ft 467 kts 147°
2026-04-26 13:45 12.40069 121.80320 24928 ft 467 kts 147°
2026-04-26 13:45 12.37379 121.82189 24923 ft 467 kts 147°
2026-04-26 13:45 12.34723 121.84106 24926 ft 467 kts 144°
2026-04-26 13:46 12.32138 121.86123 24922 ft 468 kts 142°
2026-04-26 13:46 12.29602 121.88213 24923 ft 468 kts 141°
2026-04-26 13:46 12.27090 121.90336 24927 ft 468 kts 141°
2026-04-26 13:46 12.24579 121.92451 24927 ft 468 kts 142°
2026-04-26 13:47 12.22054 121.94550 24924 ft 468 kts 142°
2026-04-26 13:47 12.19553 121.96599 24925 ft 463 kts 142°
2026-04-26 13:47 12.17047 121.98629 24925 ft 456 kts 143°
2026-04-26 13:47 12.14585 122.00613 24864 ft 434 kts 143°
2026-04-26 13:48 12.12297 122.02457 24752 ft 414 kts 143°
2026-04-26 13:48 12.10089 122.04246 24639 ft 397 kts 141°
2026-04-26 13:48 12.08207 122.06247 24228 ft 386 kts 127°
2026-04-26 13:48 12.06827 122.08579 23600 ft 382 kts 117°
2026-04-26 13:49 12.05636 122.10996 22817 ft 379 kts 117°
2026-04-26 13:49 12.04457 122.13388 22104 ft 374 kts 117°
2026-04-26 13:49 12.03297 122.15740 21440 ft 368 kts 117°
2026-04-26 13:49 12.02152 122.18053 20806 ft 362 kts 117°
2026-04-26 13:50 12.01018 122.20328 20174 ft 357 kts 117°
2026-04-26 13:50 11.99897 122.22567 19560 ft 351 kts 116°
2026-04-26 13:50 11.99823 122.22714 19517 ft 351 kts 116°
2026-04-26 13:50 11.98694 122.24951 18900 ft 346 kts 116°
2026-04-26 13:51 11.97619 122.27095 18337 ft 341 kts 116°
2026-04-26 13:51 11.96535 122.29270 17679 ft 337 kts 116°
2026-04-26 13:51 11.95493 122.31358 17050 ft 333 kts 116°
2026-04-26 13:51 11.94448 122.33453 16424 ft 329 kts 116°
2026-04-26 13:52 11.93418 122.35522 15814 ft 325 kts 116°
2026-04-26 13:52 11.92400 122.37568 15216 ft 321 kts 116°
2026-04-26 13:52 11.91390 122.39586 14655 ft 318 kts 116°
2026-04-26 13:52 11.90393 122.41571 14328 ft 305 kts 116°
2026-04-26 13:53 11.89427 122.43475 13769 ft 304 kts 117°
2026-04-26 13:53 11.88373 122.45360 13017 ft 307 kts 120°
2026-04-26 13:53 11.87265 122.47218 12381 ft 305 kts 120°
2026-04-26 13:53 11.85939 122.48882 11772 ft 303 kts 140°
2026-04-26 13:54 11.84754 122.49626 11378 ft 303 kts 155°
2026-04-26 13:54 11.82696 122.50068 10773 ft 305 kts 179°
2026-04-26 13:54 11.80627 122.49616 10148 ft 308 kts 204°
2026-04-26 13:55 11.77398 122.46835 9014 ft 301 kts 223°
2026-04-26 13:55 11.75916 122.45356 8469 ft 296 kts 223°
2026-04-26 13:55 11.73019 122.42475 7438 ft 288 kts 223°
2026-04-26 13:56 11.71568 122.41036 6906 ft 294 kts 223°
2026-04-26 13:56 11.70082 122.39563 6347 ft 301 kts 223°
2026-04-26 13:56 11.68583 122.38076 6033 ft 298 kts 223°
2026-04-26 13:56 11.67112 122.36618 5444 ft 295 kts 222°
2026-04-26 13:57 11.65640 122.35160 4735 ft 296 kts 222°
2026-04-26 13:57 11.64159 122.33694 4082 ft 295 kts 222°
2026-04-26 13:57 11.62739 122.32283 4002 ft 276 kts 222°
2026-04-26 13:57 11.61393 122.30947 3898 ft 264 kts 221°
2026-04-26 13:58 11.60118 122.29683 3782 ft 255 kts 221°
2026-04-26 13:58 11.58865 122.28446 3680 ft 248 kts 221°
2026-04-26 13:58 11.57639 122.27236 3556 ft 242 kts 222°
2026-04-26 13:58 11.56464 122.26071 3439 ft 229 kts 221°
2026-04-26 13:59 11.55344 122.24952 3343 ft 223 kts 224°
2026-04-26 13:59 11.54629 122.23574 3285 ft 224 kts 265°
2026-04-26 13:59 11.54979 122.22081 3241 ft 220 kts 308°
2026-04-26 14:00 11.57706 122.22478 3159 ft 142 kts 70°
2026-04-26 14:00 11.58073 122.23423 3094 ft 144 kts 70°
2026-04-26 14:00 11.58316 122.24048 3007 ft 143 kts 70°
2026-04-26 14:01 11.58802 122.25297 2818 ft 141 kts 71°
2026-04-26 14:01 11.59165 122.26231 2668 ft 143 kts 69°
2026-04-26 14:01 11.59527 122.27163 2507 ft 141 kts 69°
2026-04-26 14:01 11.59948 122.28055 2374 ft 140 kts 57°
2026-04-26 14:02 11.60522 122.28858 2195 ft 140 kts 55°
2026-04-26 14:02 11.61131 122.29625 2001 ft 140 kts 53°
2026-04-26 14:02 11.61769 122.30370 1801 ft 139 kts 52°
2026-04-26 14:02 11.62406 122.31108 1626 ft 139 kts 52°
2026-04-26 14:03 11.63040 122.31844 1403 ft 138 kts 51°
2026-04-26 14:03 11.63674 122.32581 1224 ft 139 kts 52°
2026-04-26 14:03 11.64312 122.33324 1021 ft 139 kts 52°
2026-04-26 14:03 11.64956 122.34069 805 ft 140 kts 50°
2026-04-26 14:04 11.65605 122.34812 573 ft 140 kts 49°
2026-04-26 14:04 11.66253 122.35562 398 ft 140 kts 50°
2026-04-26 14:04 11.66904 122.36309 178 ft 140 kts 50°
2026-04-26 14:04 11.67518 122.37059 21 ft 127 kts 43°
2026-04-26 14:05 11.67928 122.37523 19 ft 45 kts 50°
2026-04-26 14:05 11.68016 122.37626 20 ft 16 kts 48°
2026-04-26 14:05 11.68096 122.37719 19 ft 18 kts 49°
2026-04-26 14:05 11.68183 122.37823 19 ft 20 kts 48°
2026-04-26 14:06 11.68279 122.37930 18 ft 21 kts 48°
2026-04-26 14:06 11.68368 122.38009 18 ft 15 kts 360°
2026-04-26 14:06 11.68428 122.38022 20 ft 8 kts 51°
2026-04-26 14:06 11.68460 122.38063 19 ft 7 kts 51°
2026-04-26 14:07 11.68488 122.38070 19 ft 3 kts 342°
2026-04-26 14:07 11.68500 122.38064 19 ft 1 kts 328°
2026-04-26 14:07 11.68503 122.38061 19 ft 1 kts 325°
2026-04-26 14:07 11.68509 122.38057 20 ft 0 kts 323°